Weather in Gocek

Turkey     36°45′09″N   28°56′32″E
temp.,
°C
wind,
m/s
gust,
m/s
humid.,
%
clouds,
%
prec.,
mm/h
press.,
hPa
HPBL,
m
17 april, sat
sat1700:00+15ene1154100 0.0 101621
03:00+15ene3352100 0.0 101535
06:00+16ne3247100 0.0 101522
09:00+21sw2236100 0.0 1016170
12:00+25ssw4427100 0.0 1015809
15:00+24wsw4531100 0.0 1015641
18:00+25ssw0226100 0.0 1015390
21:00+21n1134100 0.0 101814
18 april, sun
sun1800:00+19ene2247100 0.0 101624
03:00+20ne4548100 0.0 101673
06:00+20n1141100 0.0 101614
09:00+23ne1137100 0.0 101768
12:00+25sw3328100 0.0 1017618
15:00+26sw342693 0.0 1015701
18:00+24w2330100 0.0 1015325
21:00+21nw1135100 0.0 101513
19 april, mon
mon1900:00+20ne2233100 0.0 101517
03:00+20n2232100 0.0 101316
06:00+20nne1132100 0.0 101211
09:00+23nw1231100 0.0 1011190
12:00+25sw4427100 0.0 1010824
15:00+23wsw3336100 0.0 1009807
18:00+19sw4460100 0.0 1009463
21:00+16s2279100 0.0 101059
20 april, tue
tue2000:00+14wsw018197 0.0 101130
03:00+12nnw227898 0.0 101124
06:00+11n22640 0.0 101229
09:00+16w22410 0.0 1013541
12:00+19sw55330 0.0 10141445
15:00+19sw65411 0.0 10141340
18:00+18sw43490 0.0 1014796
21:00+13e11723 0.0 101553
21 april, wed
wed2100:00+12ne11736 0.0 101622
03:00+11nne11690 0.0 101622
06:00+11nne21650 0.0 101624
09:00+16w224511 0.0 1017452
12:00+20sw433589 0.0 10171069
15:00+20sw43405 0.0 1017901
18:00+18ssw2148100 0.0 1017480
21:00+13ene11715 0.0 101919